TimeEST,TemperatureF,Dew PointF,Humidity,Sea Level PressureIn,VisibilityMPH,Wind Direction,Wind SpeedMPH,Gust SpeedMPH,PrecipitationIn,Events,Conditions,WindDirDegrees,DateUTC
12:53 AM,32.0,30.0,92,30.34,10.0,Calm,Calm,-,N/A,,Clear,0,2012-12-14 05:53:00
1:53 AM,30.0,28.0,92,30.34,10.0,Calm,Calm,-,N/A,,Clear,0,2012-12-14 06:53:00
2:53 AM,30.0,28.9,96,30.35,10.0,Calm,Calm,-,N/A,,Clear,0,2012-12-14 07:53:00
3:53 AM,28.9,27.0,92,30.35,10.0,Calm,Calm,-,N/A,,Clear,0,2012-12-14 08:53:00
4:20 AM,30.2,28.4,93,30.34,10.0,Calm,Calm,-,N/A,,Mostly Cloudy,0,2012-12-14 09:20:00
4:53 AM,30.9,30.0,96,30.35,10.0,Calm,Calm,-,N/A,,Overcast,0,2012-12-14 09:53:00
5:53 AM,30.9,28.9,92,30.37,10.0,Calm,Calm,-,N/A,,Overcast,0,2012-12-14 10:53:00
6:12 AM,32.0,30.2,93,30.37,10.0,Calm,Calm,-,N/A,,Scattered Clouds,0,2012-12-14 11:12:00
6:33 AM,30.2,28.4,93,30.37,10.0,Calm,Calm,-,N/A,,Mostly Cloudy,0,2012-12-14 11:33:00
6:53 AM,30.0,28.9,96,30.39,10.0,Calm,Calm,-,N/A,,Mostly Cloudy,0,2012-12-14 11:53:00
7:02 AM,30.2,28.4,93,30.37,10.0,Calm,Calm,-,N/A,,Scattered Clouds,0,2012-12-14 12:02:00
7:53 AM,28.9,28.0,96,30.40,9.0,Calm,Calm,-,N/A,,Clear,0,2012-12-14 12:53:00
8:53 AM,35.1,33.1,92,30.40,8.0,Calm,Calm,-,N/A,,Clear,0,2012-12-14 13:53:00
9:53 AM,46.0,37.0,71,30.40,10.0,East,6.9,-,N/A,,Clear,100,2012-12-14 14:53:00
10:53 AM,50.0,35.1,57,30.39,10.0,SE,9.2,-,N/A,,Clear,130,2012-12-14 15:53:00
11:53 AM,54.0,34.0,47,30.35,10.0,ENE,4.6,-,N/A,,Clear,70,2012-12-14 16:53:00
12:53 PM,55.9,35.1,45,30.31,10.0,ESE,5.8,-,N/A,,Clear,120,2012-12-14 17:53:00
1:53 PM,57.0,36.0,45,30.29,10.0,SSE,5.8,-,N/A,,Clear,150,2012-12-14 18:53:00
2:53 PM,59.0,37.0,44,30.25,10.0,SE,4.6,-,N/A,,Clear,130,2012-12-14 19:53:00
3:53 PM,60.1,37.0,42,30.25,10.0,Calm,Calm,-,N/A,,Clear,0,2012-12-14 20:53:00
4:53 PM,59.0,37.9,46,30.23,10.0,ESE,4.6,-,N/A,,Clear,110,2012-12-14 21:53:00
5:53 PM,50.0,39.9,68,30.25,10.0,Calm,Calm,-,N/A,,Clear,0,2012-12-14 22:53:00
6:53 PM,44.1,39.0,82,30.26,10.0,Calm,Calm,-,N/A,,Clear,0,2012-12-14 23:53:00
7:53 PM,43.0,37.9,82,30.26,10.0,Calm,Calm,-,N/A,,Clear,0,2012-12-15 00:53:00
8:53 PM,43.0,39.0,86,30.27,10.0,Calm,Calm,-,N/A,,Clear,0,2012-12-15 01:53:00
9:53 PM,42.1,37.9,85,30.25,10.0,Calm,Calm,-,N/A,,Clear,0,2012-12-15 02:53:00
10:53 PM,42.1,37.9,85,30.22,10.0,Calm,Calm,-,N/A,,Clear,0,2012-12-15 03:53:00
11:53 PM,41.0,37.9,89,30.21,10.0,Calm,Calm,-,N/A,,Clear,0,2012-12-15 04:53:00